Location: Chmeln�
(49.6483°N, 14.9871°E)
Time: 22:45:48
(UTC+00:00)

Cosmos 2151 Rocket - Pass Details

Date: 18 September 2020
Orbit: 617 x 642 km, 82.5° (Epoch: 30 October)

Event Time Altitude Azimuth Distance (km) Brightness Sun altitude
Rises 18:44:35 0° 182° (S) 2,901 6.8 -16.3°
Reaches altitude 10° 18:46:48 10° 181° (S) 2,003 5.9 -16.7°
Maximum altitude 18:51:13 72° 98° (E) 669 3.5 -17.3°
Drops below altitude 10° 18:55:44 10° 14° (NNE) 2,035 6.3 -18.0°
Sets 18:58:00 0° 12° (NNE) 2,953 7.2 -18.3°
